COSMOS 679

Satellite information

Favourite Embed

Satellite Type and Status

PAYLOADIN ORBIT

Key statistics

Satellite COSMOS 679 at a glance.

Uptime

18713

Days in orbit

Revolutions

≈ 12.4

Per day

Orbit

LEO

Low Earth Orbit

Inclination

74.0

Latest

Satellite identification and parameters

Extended collection of information and parameters for COSMOS 679.

Object identification

Identified? True

Debris? False

Object name: COSMOS 679

International designator: 1974-072C

Object number (NORAD): 7437

Object ID (CCSDS): 7437

Country: COMMONWEALTH OF INDEPENDENT STATES (CIS)

Current information (Y/N): Y

RCS size: MEDIUM

Orbital parameters

Period: 115.717 minutes

Inclination: 74.0339 deg

SMA: 7866.057 km

Apoapsis: 1509.667 km

Periapsis: 1466.177 km

RAAN: 117.0582 deg

Eccentricy: 0.00276441

Argument of periapsis: 161.0131 deg

Mean anomaly: 199.1954 deg

Mean motion: 12.44420389 rev/day

Mean motion (dot): 0.00000001 rev/day2

B* drag term: 0.00011882406 1/REarth

Two-line elements (TLE)

Creation date: Dec. 12, 2025, 10:14 a.m.

Reference frame: TEME

Reference center: EARTH

Epoch: Dec. 12, 2025, 7:40 a.m. UTC

TLE line 0: 0 COSMOS 679

TLE line 1: 1 07437U 74072C 25346.31955690 .00000001 00000-0 11882-3 0 9993

TLE line 2: 2 07437 74.0339 117.0582 0027644 161.0131 199.1954 12.44420389327275

Live tracking on map

Real-time ground track for satellite COSMOS 679.

In-orbit conjunctions

There are no conjunctions computed for COSMOS 679, at the moment. Check back to stay up to date, as we update our databases every day.

Go to all conjunctions

Associated space launch

Military communications satellites

COSMOS 679 was lifted into orbit during the mission ‘Kosmos-3M | Strela-1M 73-80’, on board a Kosmos-3M space rocket.

The launch took place on Sept. 19, 1974, 2:57 p.m. from 132/2.

For more information about the launch, click the button.

Launch to space Kosmos-3M | Strela-1M 73-80
Kosmos-3M | Strela-1M 73-80

Agency: N/A

Status: Launch Successful

Launch date: Sept. 19, 1974, 2:57 p.m. UTC

Rocket: Kosmos-3M

Launch pad: 132/2

Location: Plesetsk Cosmodrome, Russian Federation

...

Latest news about this satellite

There are no fresh news available about this satellite. Check back as we update our databases every day.


Newsletter sign-up

Weekly statistics, charts and insights to help you stay on top of the space industry.